Weather History for KPIA - September, 2014

Change the Weather History Date:

Saturday, September 20, 2014

  Actual Average Record
Temperature  
Mean Temperature 71 °F 64 °F  
Max Temperature 81 °F 75 °F 94 °F (1940)
Min Temperature 60 °F 53 °F 32 °F (1991)
Degree Days  
Heating Degree Days 0 4  
Month to date heating degree days 64 33  
Since 1 July heating degree days 66 39  
Cooling Degree Days 6 3  
Month to date cooling degree days 82 97  
Year to date cooling degree days 1106 1004  
Growing Degree Days 20 (Base 50)    
Moisture  
Dew Point 63 °F    
Average Humidity 76    
Maximum Humidity 90    
Minimum Humidity 62    
Precipitation  
Precipitation T in 0.11 in 1.57 in (1883)
Month to date precipitation 4.98 2.17  
Year to date precipitation 35.06 27.12  
Snow  
Snow 0.00 in 0.00 in 0.00 in ()
Month to date snowfall 0.0 0.0  
Since 1 July snowfall 0.0 0.0  
Since 1 September snowfall 0.0 0.0  
Snow Depth 0.00 in    
Sea Level Pressure  
Sea Level Pressure 29.90 in    
Wind  
Wind Speed 9 mph (SW)    
Max Wind Speed 21 mph    
Max Gust Speed 26 mph    
Visibility 8 miles    
Events Rain , Thunderstorm    
T = Trace of Precipitation, MM = Missing Value Source: NWS Daily Summary

Daily Weather History Graph

Daily Weather History Graph

Search for Another Location

Airport or City:

Trip Planner

Search our weather history database for the weather conditions in past years. The results will help you decide how hot, cold, wet, or windy it might be!

Date:

Astronomy

Sep. 20, 2014 Rise Set
Actual Time 6:44 AM CDT 6:59 PM CDT
Civil Twilight 6:16 AM CDT 7:26 PM CDT
Nautical Twilight 5:44 AM CDT 7:58 PM CDT
Astronomical Twilight 5:12 AM CDT 8:31 PM CDT
Moon 3:22 AM CDT (9/20) 5:03 PM CDT (9/20)
Length of Visible Light 13h 09m
Length of Day
12h 14m
Waning Crescent, 11% of the Moon is Illuminated
Sep 20
Waning Crescent
Sep 24
New
Oct 1
First Quarter
Oct 8
Full
Oct 15
Last Quarter

Hourly Weather History & Observations

Time (CDT) Temp. Heat Index Dew Point Humidity Pressure Visibility Wind Dir Wind Speed Gust Speed Precip Events Conditions
12:54 AM 64.0 °F - 55.0 °F 73% 29.94 in 10.0 mi SSW 11.5 mph - N/A   Clear
1:54 AM 63.0 °F - 54.0 °F 72% 29.95 in 10.0 mi SSW 10.4 mph - N/A   Clear
2:54 AM 61.0 °F - 54.0 °F 78% 29.95 in 8.0 mi SSW 5.8 mph - N/A   Clear
3:54 AM 60.1 °F - 55.0 °F 83% 29.95 in 9.0 mi SSW 5.8 mph - N/A   Clear
4:54 AM 60.1 °F - 55.0 °F 83% 29.94 in 8.0 mi SSW 5.8 mph - N/A   Clear
5:54 AM 60.1 °F - 55.0 °F 83% 29.95 in 7.0 mi South 5.8 mph - N/A   Clear
6:54 AM 61.0 °F - 57.0 °F 87% 29.98 in 6.0 mi SSW 5.8 mph - N/A   Mostly Cloudy
7:54 AM 63.0 °F - 57.9 °F 84% 29.96 in 5.0 mi SSW 8.1 mph - N/A   Haze
8:54 AM 64.9 °F - 60.1 °F 84% 29.95 in 6.0 mi SSW 10.4 mph - N/A   Haze
9:54 AM 68.0 °F - 62.1 °F 81% 29.93 in 7.0 mi SSW 11.5 mph - N/A   Clear
10:54 AM 72.0 °F - 64.0 °F 76% 29.89 in 8.0 mi SSW 16.1 mph - N/A   Clear
11:54 AM 75.9 °F - 66.0 °F 71% 29.88 in 8.0 mi SW 13.8 mph - N/A   Clear
12:54 PM 80.1 °F 82.3 °F 66.9 °F 64% 29.89 in 9.0 mi West 13.8 mph - N/A   Partly Cloudy
1:54 PM 79.0 °F - 68.0 °F 69% 29.89 in 10.0 mi WSW 6.9 mph - N/A   Overcast
2:09 PM 80.1 °F 82.3 °F 66.9 °F 64% 29.90 in 9.0 mi WSW 10.4 mph - N/A   Mostly Cloudy
2:33 PM 79.0 °F - 66.9 °F 66% 29.90 in 9.0 mi WSW 9.2 mph - N/A Thunderstorm Mostly Cloudy
2:54 PM 78.1 °F - 69.1 °F 74% 29.87 in 8.0 mi WSW 9.2 mph - 0.00 in Rain , Thunderstorm Light Rain
3:15 PM 79.0 °F - 69.1 °F 72% 29.88 in 8.0 mi West 11.5 mph - 0.00 in   Mostly Cloudy
3:54 PM 79.0 °F - 68.0 °F 69% 29.85 in 8.0 mi WSW 12.7 mph - 0.00 in   Partly Cloudy
4:54 PM 80.1 °F 82.3 °F 66.9 °F 64% 29.83 in 10.0 mi WSW 12.7 mph - N/A   Clear
5:54 PM 80.1 °F 82.3 °F 66.9 °F 64% 29.82 in 10.0 mi WSW 12.7 mph - N/A   Clear
6:54 PM 78.1 °F - 66.9 °F 68% 29.83 in 10.0 mi SW 9.2 mph - N/A   Mostly Cloudy
7:54 PM 77.0 °F - 66.9 °F 71% 29.83 in 10.0 mi WSW 5.8 mph - N/A   Mostly Cloudy
8:54 PM 73.9 °F - 66.9 °F 79% 29.82 in 10.0 mi WSW 6.9 mph - N/A   Clear
9:54 PM 73.9 °F - 66.9 °F 79% 29.83 in 9.0 mi WSW 8.1 mph - N/A   Clear
10:54 PM 73.0 °F - 66.9 °F 81% 29.84 in 9.0 mi West 8.1 mph - N/A   Clear